Location: Easthampton
(42.2676°N, 72.6690°W)
Time: 20:53:44
(UTC+00:00)

AO-91 - Pass Details

Date: 08 April 2023
Orbit: 446 x 775 km, 97.6° (Epoch: 30 May)

Event Time Altitude Azimuth Distance (km) Brightness Sun altitude
Rises 02:13:40 0° 23° (NNE) 3,270 ? -28.8°
Reaches altitude 10° 02:16:20 10° 35° (NE) 2,339 ? -29.2°
Enters shadow 02:17:07 14° 40° (NE) 2,094 ? -29.3°
